Content
SEND FEEDBACK

Daily
Averages
Monthly
Summary
United States of America

ST. LOUIS, MISSOURI


Home > North America > United States > Missouri
Elevation: 535 feet     Latitude: 38 45N     Longitude: 090 22W

WEATHER
 
SELECT A DAY
Number of Records: 196,446;   Date Range: 1/1/95 - 8/12/14
 
SHARE

PRINT THIS DATA

[ ← Previous Day ]
WEATHER ALMANAC - APRIL 15, 2014
[ Next Day → ]
[ °C ]   °F
Weather ElementAverageHighLow
Temperature38.8 °F48 °F (2:54 pm)30 °F (5:54 am)
Dewpoint20.9 °F26.1 °F (9:54 pm)16 °F (3:54 pm)
Humidity51.5 %79 % (1:54 am)28 % (5:54 pm)
Barometer30.20 in30.25 in (9:54 am)30.14 in (1:54 am)
Wind Speed6.8 mph15 mph (2:54 pm)
Wind Gust23 mph (12:54 pm)
Weather ElementAverage
Visibility10 mi
Wind DirectionSSW (194.3 °)

Weather ElementTotal
Precipitation---
Heating Degree Days26 (Base 65)
Averaged from 23 records on April 15, 2014
WEATHER CONDITIONS BREAKOUT
WIND DIRECTION BREAKOUT
WEATHER BY HOUR - APRIL 15, 2014
[ °C ]   °F
Local TimeTemperatureDewpointHumidityBarometerVisibilityWind DirectionWind SpeedGust SpeedPrecipitationEventsConditions
1:54 AM30.9 °F25.0 °F79 %30.14 in10.0 miWNW (290°)5.8 mphClear
2:54 AM32.0 °F23.0 °F69 %30.14 in10.0 miWest (280°)5.8 mphClear
3:54 AM30.9 °F21.9 °F69 %30.15 in10.0 miNW (310°)9.2 mphClear
4:54 AM30.9 °F21.9 °F69 %30.16 in10.0 miNW (310°)8.1 mphClear
5:54 AM30.0 °F21.0 °F69 %30.18 in10.0 miWNW (300°)6.9 mphClear
6:54 AM30.0 °F21.0 °F69 %30.21 in10.0 miWNW (290°)6.9 mphClear
7:54 AM33.1 °F21.9 °F64 %30.23 in10.0 miWNW (300°)8.1 mphClear
8:54 AM36.0 °F19.9 °F52 %30.24 in10.0 miNNW (330°)9.2 mphClear
9:54 AM37.9 °F18.0 °F45 %30.25 in10.0 miNNW (330°)11.5 mphClear
10:54 AM39.9 °F18.0 °F41 %30.25 in10.0 miNorth (10°)6.9 mphPartly Cloudy
11:54 AM42.1 °F18.0 °F38 %30.25 in10.0 miWNW (290°)12.7 mphScattered Clouds
12:54 PM45.0 °F19.0 °F36 %30.24 in10.0 miWNW (300°)11.5 mph23.0 mphScattered Clouds
1:54 PM46.0 °F19.9 °F35 %30.23 in10.0 miVariable6.9 mphPartly Cloudy
2:54 PM48.0 °F21.9 °F36 %30.22 in10.0 miNNW (330°)15.0 mph20.7 mphPartly Cloudy
3:54 PM46.9 °F16.0 °F29 %30.21 in10.0 miVariable4.6 mphPartly Cloudy
4:54 PM48.0 °F17.1 °F29 %30.19 in10.0 miNW (310°)8.1 mphClear
5:54 PM48.0 °F16.0 °F28 %30.18 in10.0 miEast (90°)3.5 mphPartly Cloudy
6:54 PM46.9 °F17.1 °F30 %30.18 in10.0 miNNE (30°)3.5 mphPartly Cloudy
7:54 PM42.1 °F24.1 °F49 %30.18 in10.0 miCalmMostly Cloudy
8:54 PM39.0 °F25.0 °F57 %30.20 in10.0 miSE (140°)3.5 mphPartly Cloudy
9:54 PM37.0 °F26.1 °F65 %30.22 in10.0 miCalmPartly Cloudy
10:54 PM34.0 °F26.1 °F73 %30.22 in10.0 miEast (80°)3.5 mphClear
11:54 PM37.9 °F21.9 °F53 %30.21 in10.0 miSSE (150°)4.6 mphClear
Hourly data recorded from KSUS, located miles away from St. Louis, Missouri







STORIES FROM OUR PARTNERS